GW4567 Weather Reports


time (UTC)temp
C
wind
direction
speed
KPH
gust
KPH
rain 1hr
cm
rain 24hr
cm
rain mn
cm
humidity
%
barometer
mb
20260510045419 10 222 3.2 3.2 0.00 0.00 0.00 81 1013.2
20260510044915 9 199 3.2 3.2 0.00 0.00 0.00 81 1013.1
20260510044412 9 197 0.0 1.6 0.00 0.00 0.00 80 1012.9
20260510043908 9 200 1.6 1.6 0.00 0.00 0.00 79 1012.9
20260510043404 9 263 0.0 0.0 0.00 0.00 0.00 77 1012.9
20260510042903 10 260 1.6 1.6 0.00 0.00 0.00 75 1012.5
20260510042358 11 142 1.6 1.6 0.00 0.00 0.00 75 1012.8
20260510041854 11 211 1.6 3.2 0.00 0.00 0.00 76 1012.8
20260510041352 11 215 4.8 4.8 0.00 0.00 0.00 75 1013.0
20260510040849 11 139 3.2 3.2 0.00 0.00 0.00 74 1012.6
20260510040346 11 233 0.0 0.0 0.00 0.00 0.00 73 1012.7
20260510035841 11 233 0.0 1.6 0.00 0.00 0.00 73 1012.8
20260510035337 11 251 3.2 4.8 0.00 0.00 0.00 72 1012.9
20260510034833 12 344 0.0 1.6 0.00 0.00 0.00 70 1012.7
20260510034331 12 341 0.0 0.0 0.00 0.00 0.00 69 1012.8
20260510033827 13 341 0.0 0.0 0.00 0.00 0.00 66 1012.6
20260510033324 13 296 0.0 0.0 0.00 0.00 0.00 64 1012.7
20260510032821 14 259 3.2 4.8 0.00 0.00 0.00 64 1012.8
20260510032318 14 272 4.8 4.8 0.00 0.00 0.00 64 1012.8
20260510031813 14 261 8.0 11.3 0.00 0.00 0.00 65 1012.7
20260510031309 14 233 8.0 9.7 0.00 0.00 0.00 64 1012.9
20260510030809 14 243 8.0 9.7 0.00 0.00 0.00 64 1012.6
20260510030306 14 239 8.0 9.7 0.00 0.00 0.00 63 1012.7
20260510025803 14 247 6.4 9.7 0.00 0.00 0.00 63 1012.7
20260510025300 14 271 9.7 9.7 0.00 0.00 0.00 62 1012.6
20260510024757 15 321 1.6 6.4 0.00 0.00 0.00 62 1012.5
20260510024254 14 258 8.0 9.7 0.00 0.00 0.00 63 1012.4
20260510023750 13 248 6.4 9.7 0.00 0.00 0.00 64 1012.6
20260510023247 15 255 3.2 3.2 0.00 0.00 0.00 61 1012.4
20260510022743 15 221 8.0 9.7 0.00 0.00 0.00 60 1012.5
20260510022243 15 249 8.0 11.3 0.00 0.00 0.00 60 1012.4
20260510021742 15 289 6.4 6.4 0.00 0.00 0.00 60 1012.6
20260510021241 15 261 8.0 9.7 0.00 0.00 0.00 59 1012.4
20260510020737 15 275 6.4 6.4 0.00 0.00 0.00 59 1012.4
20260510020236 15 256 6.4 6.4 0.00 0.00 0.00 59 1012.2
20260510015733 15 277 4.8 4.8 0.00 0.00 0.00 59 1012.1
20260510015229 15 280 6.4 6.4 0.00 0.00 0.00 58 1012.0
20260510014724 15 270 4.8 6.4 0.00 0.00 0.00 58 1011.9
20260510014222 16 253 6.4 6.4 0.00 0.00 0.00 58 1011.8
20260510013717 16 268 3.2 4.8 0.00 0.00 0.00 56 1011.7
20260510013214 16 270 4.8 6.4 0.00 0.00 0.00 56 1011.7
20260510012713 16 282 3.2 3.2 0.00 0.00 0.00 57 1011.6
20260510012209 15 264 4.8 6.4 0.00 0.00 0.00 58 1011.4
20260510011704 15 283 4.8 4.8 0.00 0.00 0.00 59 1011.4
20260510011200 16 3 0.0 0.0 0.00 0.00 0.00 55 1011.1
20260510010656 17 241 0.0 1.6 0.00 0.00 0.00 52 1011.2
20260510010148 17 231 4.8 4.8 0.00 0.00 0.00 52 1011.2
20260510005644 16 230 3.2 4.8 0.00 0.00 0.00 55 1011.0
20260510005141 17 307 0.0 0.0 0.00 0.00 0.00 54 1011.0
20260510004639 17 256 4.8 4.8 0.00 0.00 0.00 50 1010.9
20260510004137 17 238 3.2 3.2 0.00 0.00 0.00 50 1010.7
20260510003634 17 263 4.8 4.8 0.00 0.00 0.00 50 1010.7
20260510003130 17 240 6.4 6.4 0.00 0.00 0.00 50 1010.8
20260510002629 17 257 3.2 4.8 0.00 0.00 0.00 51 1010.8
20260510002127 17 243 3.2 4.8 0.00 0.00 0.00 50 1010.8
20260510001623 18 259 3.2 3.2 0.00 0.00 0.00 50 1010.7
20260510001122 18 241 3.2 3.2 0.00 0.00 0.00 49 1010.4
20260510000622 18 256 3.2 3.2 0.00 0.00 0.00 49 1010.3
20260510000120 18 258 1.6 1.6 0.00 0.00 0.00 48 1010.3
20260509235616 19 245 4.8 4.8 0.00 0.00 0.00 47 1010.3
20260509235113 19 244 1.6 1.6 0.00 0.00 0.00 46 1010.1
20260509234609 20 262 1.6 3.2 0.00 0.00 0.00 44 1010.3
20260509234107 21 249 1.6 1.6 0.00 0.00 0.00 43 1010.2
20260509233604 21 348 6.4 9.7 0.00 0.00 0.00 42 1010.3
20260509233101 21 1 3.2 3.2 0.00 0.00 0.00 43 1010.2
20260509232557 21 280 1.6 3.2 0.00 0.00 0.00 42 1010.2
20260509232055 21 26 3.2 3.2 0.00 0.00 0.00 43 1010.3
20260509231551 21 26 3.2 3.2 0.00 0.00 0.00 43 1010.3
20260509231049 21 356 4.8 6.4 0.00 0.00 0.00 42 1010.1
20260509230545 21 342 6.4 6.4 0.00 0.00 0.00 42 1010.2
20260509230043 21 353 1.6 3.2 0.00 0.00 0.00 42 1010.3
20260509225538 21 328 8.0 11.3 0.00 0.00 0.00 40 1010.2
20260509225033 21 345 9.7 14.5 0.00 0.00 0.00 41 1010.3
20260509224529 21 45 12.9 14.5 0.00 0.00 0.00 42 1010.3
20260509224026 22 11 12.9 16.1 0.00 0.00 0.00 40 1010.2
20260509223523 22 337 12.9 16.1 0.00 0.00 0.00 41 1010.2
20260509223021 21 354 12.9 17.7 0.00 0.00 0.00 40 1010.4
20260509222517 21 331 16.1 16.1 0.00 0.00 0.00 42 1010.2
20260509222012 21 34 12.9 16.1 0.00 0.00 0.00 42 1010.3
20260509221509 21 3 11.3 16.1 0.00 0.00 0.00 41 1010.3
20260509221004 20 338 14.5 20.9 0.00 0.00 0.00 42 1010.4
20260509220501 20 240 14.5 16.1 0.00 0.00 0.00 48 1010.4
20260509215957 20 142 3.2 4.8 0.00 0.00 0.00 48 1010.3
20260509215452 20 326 1.6 4.8 0.00 0.00 0.00 49 1010.4
20260509214950 20 233 4.8 6.4 0.00 0.00 0.00 48 1010.1
20260509214447 20 146 0.0 3.2 0.00 0.00 0.00 50 1010.2
20260509213944 20 111 6.4 6.4 0.00 0.00 0.00 49 1010.1
20260509213440 20 105 6.4 6.4 0.00 0.00 0.00 49 1010.0
20260509212937 20 102 8.0 11.3 0.00 0.00 0.00 49 1010.1
20260509212435 20 75 4.8 9.7 0.00 0.00 0.00 49 1009.8
20260509211930 20 72 4.8 6.4 0.00 0.00 0.00 47 1009.8
20260509211426 21 55 6.4 6.4 0.00 0.00 0.00 46 1009.7
20260509210923 20 137 1.6 3.2 0.00 0.00 0.00 45 1010.0
20260509210420 20 125 6.4 12.9 0.00 0.00 0.00 45 1009.8
20260509205915 20 91 9.7 9.7 0.00 0.00 0.00 46 1009.9
20260509205415 20 78 6.4 9.7 0.00 0.00 0.00 47 1009.6
20260509204911 20 86 4.8 6.4 0.00 0.00 0.00 46 1009.6
20260509204408 20 331 3.2 3.2 0.00 0.00 0.00 45 1009.8
20260509203904 20 51 3.2 3.2 0.00 0.00 0.00 45 1009.6
20260509203401 21 109 9.7 11.3 0.00 0.00 0.00 46 1009.7
20260509202858 20 15 8.0 9.7 0.00 0.00 0.00 48 1009.6
20260509202354 20 44 8.0 11.3 0.00 0.00 0.00 47 1009.6
20260509201849 20 40 9.7 11.3 0.00 0.00 0.00 48 1009.7
20260509201345 20 59 12.9 16.1 0.00 0.00 0.00 48 1009.7
20260509200842 20 54 16.1 17.7 0.00 0.00 0.00 48 1009.7
20260509200336 20 67 3.2 4.8 0.00 0.00 0.00 48 1009.8
20260509195834 20 32 6.4 6.4 0.00 0.00 0.00 46 1009.8
20260509195333 20 30 8.0 9.7 0.00 0.00 0.00 46 1009.8
20260509194828 20 67 6.4 9.7 0.00 0.00 0.00 46 1009.7
20260509194324 21 79 6.4 9.7 0.00 0.00 0.00 44 1009.7
20260509193821 21 37 4.8 4.8 0.00 0.00 0.00 45 1009.5
20260509193320 21 63 4.8 6.4 0.00 0.00 0.00 45 1009.7
20260509192817 21 61 4.8 6.4 0.00 0.00 0.00 44 1009.9
20260509192313 21 70 6.4 6.4 0.00 0.00 0.00 42 1009.8
20260509191808 22 79 3.2 4.8 0.00 0.00 0.00 42 1009.8
20260509191304 22 150 1.6 1.6 0.00 0.00 0.00 42 1009.7
20260509190800 22 92 6.4 9.7 0.00 0.00 0.00 42 1009.9
20260509190258 20 38 8.0 11.3 0.00 0.00 0.00 45 1010.0
20260509185755 20 38 8.0 11.3 0.00 0.00 0.00 45 1010.0
20260509185251 20 44 6.4 6.4 0.00 0.00 0.00 46 1010.1
20260509184749 20 83 9.7 12.9 0.00 0.00 0.00 47 1010.0
20260509184247 -17 0.0 0.0 0.00 0.00 0.00 1010.2
20260509183743 -17 0.0 0.0 0.00 0.00 0.00 1010.0
20260509183238 21 204 11.3 12.9 0.00 0.00 0.00 43 1010.1
20260509182733 21 204 11.3 12.9 0.00 0.00 0.00 43 1010.3
20260509182231 20 178 1.6 3.2 0.00 0.00 0.00 44 1010.1
20260509181728 20 142 4.8 6.4 0.00 0.00 0.00 46 1010.3
20260509181225 20 112 3.2 4.8 0.00 0.00 0.00 47 1010.4
20260509180722 19 142 3.2 6.4 0.00 0.00 0.00 47 1010.6
20260509180219 19 156 3.2 4.8 0.00 0.00 0.00 48 1010.8
20260509175715 18 57 1.6 3.2 0.00 0.00 0.00 48 1011.0
20260509175212 18 103 3.2 3.2 0.00 0.00 0.00 50 1011.0
20260509174707 18 132 6.4 6.4 0.00 0.00 0.00 48 1011.0
20260509174202 19 114 4.8 6.4 0.00 0.00 0.00 48 1010.8
20260509173659 18 159 3.2 3.2 0.00 0.00 0.00 49 1011.1
20260509173155 19 234 3.2 3.2 0.00 0.00 0.00 48 1011.2
20260509172651 18 193 3.2 4.8 0.00 0.00 0.00 50 1011.3
20260509172147 18 193 6.4 6.4 0.00 0.00 0.00 47 1011.3
20260509171643 18 260 1.6 1.6 0.00 0.00 0.00 49 1011.6
20260509171140 18 77 0.0 0.0 0.00 0.00 0.00 49 1011.3
20260509170637 18 217 4.8 4.8 0.00 0.00 0.00 48 1011.6
20260509170132 18 227 6.4 6.4 0.00 0.00 0.00 48 1011.6
20260509165631 17 151 3.2 4.8 0.00 0.00 0.00 50 1011.8
20260509165127 17 208 3.2 3.2 0.00 0.00 0.00 50 1011.7
20260509164623 17 158 1.6 1.6 0.00 0.00 0.00 49 1011.7
20260509164119 17 125 3.2 3.2 0.00 0.00 0.00 51 1011.9
20260509163617 17 119 3.2 3.2 0.00 0.00 0.00 51 1011.8
20260509163112 17 178 3.2 4.8 0.00 0.00 0.00 50 1011.7
20260509162610 17 139 1.6 1.6 0.00 0.00 0.00 51 1011.8
20260509162105 17 156 4.8 6.4 0.00 0.00 0.00 52 1011.9
20260509161557 16 131 4.8 6.4 0.00 0.00 0.00 52 1012.1
20260509161056 16 117 4.8 6.4 0.00 0.00 0.00 53 1012.1
20260509160553 16 63 3.2 6.4 0.00 0.00 0.00 55 1012.3
20260509160048 16 88 6.4 11.3 0.00 0.00 0.00 55 1012.2
20260509155544 16 70 6.4 9.7 0.00 0.00 0.00 57 1012.1
20260509155041 16 69 6.4 9.7 0.00 0.00 0.00 56 1012.3
20260509154537 16 62 9.7 11.3 0.00 0.00 0.00 56 1012.3
20260509154035 16 56 11.3 12.9 0.00 0.00 0.00 55 1012.3
20260509153531 16 77 6.4 6.4 0.00 0.00 0.00 55 1012.2
20260509153028 16 73 6.4 9.7 0.00 0.00 0.00 54 1012.1
20260509152524 16 30 6.4 9.7 0.00 0.00 0.00 54 1012.1
20260509152021 16 78 3.2 3.2 0.00 0.00 0.00 52 1011.8
20260509151517 16 30 6.4 9.7 0.00 0.00 0.00 54 1011.9
20260509151015 16 108 6.4 12.9 0.00 0.00 0.00 53 1012.1
20260509150512 16 109 6.4 6.4 0.00 0.00 0.00 53 1011.8
20260509150011 16 85 8.0 9.7 0.00 0.00 0.00 54 1012.0
20260509145506 16 110 4.8 6.4 0.00 0.00 0.00 52 1012.2
20260509145001 16 68 4.8 11.3 0.00 0.00 0.00 53 1012.2
20260509144459 16 62 4.8 6.4 0.00 0.00 0.00 55 1012.2
20260509143955 16 64 11.3 14.5 0.00 0.00 0.00 54 1012.2
20260509143452 16 115 8.0 9.7 0.00 0.00 0.00 54 1012.2
20260509142949 16 60 3.2 3.2 0.00 0.00 0.00 55 1011.9
20260509142445 16 93 6.4 6.4 0.00 0.00 0.00 55 1012.0
20260509141941 16 60 3.2 3.2 0.00 0.00 0.00 54 1012.2
20260509141438 15 59 1.6 4.8 0.00 0.00 0.00 56 1012.2
20260509140935 15 80 3.2 3.2 0.00 0.00 0.00 56 1012.2
20260509140431 15 51 3.2 3.2 0.00 0.00 0.00 56 1012.3
20260509135930 15 68 1.6 3.2 0.00 0.00 0.00 57 1012.4
20260509135427 15 99 1.6 1.6 0.00 0.00 0.00 55 1012.4
20260509134924 15 80 6.4 6.4 0.00 0.00 0.00 55 1012.2
20260509134421 15 57 1.6 3.2 0.00 0.00 0.00 56 1012.5
20260509133918 14 300 0.0 1.6 0.00 0.00 0.00 58 1012.4
20260509133415 14 307 1.6 6.4 0.00 0.00 0.00 60 1012.7
20260509132914 14 334 4.8 4.8 0.00 0.00 0.00 61 1012.6
20260509132411 13 310 4.8 4.8 0.00 0.00 0.00 62 1012.6
20260509131908 13 321 3.2 4.8 0.00 0.00 0.00 64 1012.5
20260509131405 13 304 6.4 6.4 0.00 0.00 0.00 64 1012.4
20260509130902 13 310 3.2 3.2 0.00 0.00 0.00 67 1012.2
20260509130357 13 289 0.0 0.0 0.00 0.00 0.00 67 1012.4
20260509125854 12 290 0.0 1.6 0.00 0.00 0.00 66 1012.3
20260509125350 12 304 3.2 3.2 0.00 0.00 0.00 66 1012.3
20260509124846 12 311 3.2 3.2 0.00 0.00 0.00 66 1012.4
20260509124344 12 264 0.0 0.0 0.00 0.00 0.00 68 1012.4
20260509123842 12 257 0.0 0.0 0.00 0.00 0.00 70 1012.3
20260509123339 12 50 1.6 3.2 0.00 0.00 0.00 70 1012.1
20260509122834 12 250 0.0 0.0 0.00 0.00 0.00 68 1012.2
20260509122331 12 291 1.6 3.2 0.00 0.00 0.00 66 1012.3
20260509121828 11 268 1.6 3.2 0.00 0.00 0.00 66 1012.4
20260509121325 11 275 3.2 4.8 0.00 0.00 0.00 67 1012.4
20260509120824 11 272 6.4 9.7 0.00 0.00 0.00 66 1012.5
20260509120321 11 266 6.4 6.4 0.00 0.00 0.00 67 1012.5
20260509115819 11 266 3.2 4.8 0.00 0.00 0.00 67 1012.4
20260509115316 11 292 4.8 4.8 0.00 0.00 0.00 65 1012.4
20260509114814 12 299 3.2 3.2 0.00 0.00 0.00 65 1012.2
20260509114312 12 303 1.6 4.8 0.00 0.00 0.00 65 1012.4
20260509113812 11 296 3.2 3.2 0.00 0.00 0.00 66 1012.5
20260509113307 11 291 3.2 3.2 0.00 0.00 0.00 67 1012.5
20260509112804 11 284 1.6 1.6 0.00 0.00 0.00 68 1012.4
20260509112302 11 287 3.2 3.2 0.00 0.00 0.00 69 1012.6
20260509111758 10 294 1.6 4.8 0.00 0.00 0.00 70 1012.3
20260509111255 11 64 1.6 3.2 0.00 0.00 0.00 71 1012.4
20260509110753 11 37 3.2 4.8 0.00 0.00 0.00 69 1012.4
20260509110249 11 305 4.8 6.4 0.00 0.00 0.00 68 1012.0
20260509105747 10 296 3.2 4.8 0.00 0.00 0.00 69 1012.1
20260509105245 10 290 4.8 6.4 0.00 0.00 0.00 70 1012.1
20260509104741 10 249 0.0 0.0 0.00 0.00 0.00 70 1012.1
20260509104238 10 259 0.0 3.2 0.00 0.00 0.00 70 1012.0
20260509103737 10 287 1.6 3.2 0.00 0.00 0.00 70 1012.0
20260509103233 10 280 3.2 3.2 0.00 0.00 0.00 72 1012.2
20260509102731 10 287 3.2 3.2 0.00 0.00 0.00 71 1012.1
20260509102228 10 327 0.0 3.2 0.00 0.00 0.00 71 1012.1
20260509101719 10 353 1.6 3.2 0.00 0.00 0.00 70 1012.0
20260509101215 11 64 0.0 1.6 0.00 0.00 0.00 68 1012.2
20260509100713 10 305 0.0 3.2 0.00 0.00 0.00 67 1012.1
20260509100211 10 276 0.0 1.6 0.00 0.00 0.00 68 1011.9
20260509095707 10 283 0.0 1.6 0.00 0.00 0.00 68 1011.9
20260509095204 11 291 0.0 1.6 0.00 0.00 0.00 68 1011.9
20260509094700 11 329 3.2 3.2 0.00 0.00 0.00 67 1012.0
20260509094157 11 272 0.0 0.0 0.00 0.00 0.00 66 1011.9
20260509093656 11 229 0.0 0.0 0.00 0.00 0.00 66 1011.9
20260509093153 11 186 0.0 0.0 0.00 0.00 0.00 66 1012.0
20260509092651 11 272 0.0 0.0 0.00 0.00 0.00 66 1012.2
20260509092149 11 206 0.0 1.6 0.00 0.00 0.00 67 1012.2
20260509091646 11 223 0.0 0.0 0.00 0.00 0.00 67 1012.2
20260509091142 11 228 0.0 1.6 0.00 0.00 0.00 67 1012.2
20260509090640 11 193 0.0 0.0 0.00 0.00 0.00 67 1012.3
20260509090137 11 140 1.6 1.6 0.00 0.00 0.00 67 1012.3
20260509085635 11 89 3.2 3.2 0.00 0.00 0.00 66 1012.1
20260509085130 11 288 0.0 1.6 0.00 0.00 0.00 66 1012.2
20260509084628 11 314 1.6 3.2 0.00 0.00 0.00 66 1012.4
20260509084125 11 315 1.6 3.2 0.00 0.00 0.00 66 1012.2
20260509083622 11 323 1.6 3.2 0.00 0.00 0.00 65 1012.4
20260509083118 11 272 0.0 0.0 0.00 0.00 0.00 65 1012.4
20260509082616 11 253 0.0 0.0 0.00 0.00 0.00 65 1012.3
20260509082113 11 232 0.0 3.2 0.00 0.00 0.00 64 1012.3
20260509081610 12 67 1.6 1.6 0.00 0.00 0.00 62 1012.3
20260509081107 12 138 1.6 1.6 0.00 0.00 0.00 59 1012.2
20260509080605 12 302 1.6 3.2 0.00 0.00 0.00 58 1012.4
20260509075600 12 324 3.2 4.8 0.00 0.00 0.00 59 1012.4
20260509075058 12 283 4.8 9.7 0.00 0.00 0.00 59 1012.3
20260509074555 12 291 6.4 11.3 0.00 0.00 0.00 59 1012.6
20260509074051 12 279 6.4 6.4 0.00 0.00 0.00 58 1012.2
20260509073548 12 281 3.2 6.4 0.00 0.00 0.00 58 1012.3
20260509073044 12 274 6.4 9.7 0.00 0.00 0.00 58 1012.3
20260509072541 12 286 4.8 6.4 0.00 0.00 0.00 58 1012.3
20260509072038 12 282 8.0 12.9 0.00 0.00 0.00 59 1012.5
20260509071534 12 308 4.8 6.4 0.00 0.00 0.00 59 1012.4
20260509071032 12 284 4.8 9.7 0.00 0.00 0.00 59 1012.6
20260509070529 12 284 6.4 9.7 0.00 0.00 0.00 59 1012.3
20260509070025 12 302 6.4 6.4 0.00 0.00 0.00 59 1012.4
20260509065520 12 268 6.4 9.7 0.00 0.00 0.00 59 1012.5
20260509065017 12 284 4.8 6.4 0.00 0.00 0.00 59 1012.5
20260509064515 12 296 3.2 6.4 0.00 0.00 0.00 59 1012.5
20260509064013 12 298 4.8 6.4 0.00 0.00 0.00 59 1012.4
20260509063508 12 276 3.2 9.7 0.00 0.00 0.00 58 1012.6
20260509063005 12 299 3.2 4.8 0.00 0.00 0.00 58 1012.8
20260509062502 12 296 3.2 12.9 0.00 0.00 0.00 58 1012.5
20260509062000 12 282 8.0 9.7 0.00 0.00 0.00 58 1012.8
20260509061457 12 290 4.8 11.3 0.00 0.00 0.00 59 1012.6
20260509060954 12 303 11.3 14.5 0.00 0.00 0.00 59 1012.9
20260509060452 12 280 4.8 12.9 0.00 0.00 0.00 59 1012.8
20260509055947 11 276 4.8 11.3 0.00 0.00 0.00 60 1012.9
20260509055442 11 307 4.8 9.7 0.00 0.00 0.00 60 1012.9
20260509054939 12 14 1.6 1.6 0.00 0.00 0.00 60 1012.9
20260509054436 12 301 6.4 9.7 0.00 0.00 0.00 57 1012.9
20260509053934 12 292 6.4 9.7 0.00 0.00 0.00 57 1012.7
20260509053432 12 325 4.8 9.7 0.00 0.00 0.00 56 1013.0
20260509052929 12 313 8.0 9.7 0.00 0.00 0.00 56 1012.9
20260509052426 12 296 4.8 9.7 0.00 0.00 0.00 56 1013.0
20260509051924 12 297 4.8 6.4 0.00 0.00 0.00 56 1012.7
20260509051422 12 286 4.8 9.7 0.00 0.00 0.00 56 1013.0
20260509050918 12 269 4.8 11.3 0.00 0.00 0.00 56 1013.1
20260509050415 13 296 6.4 12.9 0.00 0.00 0.00 56 1013.1
20260509045912 13 284 6.4 9.7 0.00 0.00 0.00 55 1013.1